Location: Saint-Palais-sur-Mer
(45.6429°N, 1.0859°W)
Time: 10:07:54
(UTC+02:00)

TIGRISAT - Pass Details

Date: 29 April 2024
Orbit: 594 x 672 km, 97.7° (Epoch: 21 May)

Event Time Altitude Azimuth Distance (km) Brightness Sun altitude
Rises 05:42:06 0° 158° (SSE) 2,903 ? -11.9°
Reaches altitude 10° 05:44:19 10° 155° (SSE) 1,988 ? -11.6°
Maximum altitude 05:48:35 65° 74° (ENE) 679 ? -11.0°
Drops below altitude 10° 05:52:48 10° 353° (N) 1,962 ? -10.4°
Sets 05:54:58 0° 351° (N) 2,862 ? -10.1°
